Showing default

GLOBALSTAR M028, 25875

Orbit data source: Space-Track

GLOBALSTAR M028, 25875 is a payload satellite owned by Globalstar (US) in LEO that was launched on Sun, 25 Jul 1999 UTC via a DELTA 7420-10C launch vehicle from the Air Force Eastern Test Range (AFETR). Payload-class satellites include a variety of spacecraft equipped with specific instruments for various scientific and technological missions. These include communications satellites like Starlink; space stations such as the ISS; scientific satellites like the Hubble; Earth observation satellites from companies like Planet Labs, Umbra, and HawkEye 360; GPS; miniature CubeSats for education and research; and military/defense satellites.

Loading next visibility...
Identifier
25875, 1999-041D
Orbit
LEO
Country
Flag of UnknownUnknown / GLOB
Related business
Manufacturer
SS/Loral
Mission
Non-operational Commercial Communications
Bus & Motor
LS-400, LS-400 AOCS
Mass
450 kg wet, 380 kg dry
Launch date (UTC)
1999-07-25 (26 years ago)
Launch vehicle
DELTA 7420-10C
Launch site
Air Force Eastern Test Range (AFETR)
Object type
Payload
Rocket body
Debris
Shape & HBR
Box + 2 Pan, 6.0 m
Radar Cross Section
5.587 m², Large (>1 m²)

Expand to show TLE details & history
Last TLE update: 1 day ago

TLE from 1 day ago
0 GLOBALSTAR M028
1 25875U 99041D   25292.11505278 -.00000065  00000-0  22825-3 0  9993
2 25875  51.9613 183.5333 0063397 341.3713  18.4829 12.50589799205688
Epoch: 2025-10-19T02:45Z
TLE epoch observation values (Epoch: 2025-10-19T02:45:40.560Z)
Latitude
-0.00001°
Longitude
114.27794°
Altitude
1,415.595 km
Speed
7.175 km/s
True Right ascension
12h 14m 07s
True Declination
0° 00' 00"
Sunlit
Object was in daylight at epoch
Visualization orbit readout
Latitude
Unknown
Longitude
Unknown
Altitude
Unknown
Speed
Unknown
Apparent Right ascension
Unknown
Apparent Declination
Unknown
Sunlit
N/A
Visualization observer readout
Local Sidereal Time
23:28:56
Azimuth
Unknown
Elevation
Unknown
Doppler factor
Unknown
Orbital elements
Apogee altitude
1,512.131 km
Perigee altitude
1,412.718 km
Semi-major axis
7,840.561 km
Eccentricity
0.00634
Inclination
51.9613°
RAAN
183.5333°
Arg. of periapsis
341.3713°
True anomaly
18.71495°
Mean anomaly
18.4829°
Eccentric anomaly
18.59875°
Mean motion
3.12624 °/min
Orbital period
115.15 mins
BSTAR
0.00022825
Loading maneuver chart data...
Computing Atmospheric mass density...
Loading historical data...
Loading historical data...
Loading historical data...
Loading historical data...
Loading historical data...
Loading historical data...
Loading historical data...
Other satellites on launch #41 in the year 1999 (1999-07-25 UTC)

Documentation

Showing up to 5 results
|